Starlink 33882

operational
NORAD ID: 63788 Int'l Des: 2025-091 Owner: SPXS Country: US Constellation: starlink
LEOCIRCULAR

关于 Starlink 33882

正在加载描述...

实时位置

正在加载3D地球...

即将过境

高度历史

Altitude vs Time

uPlot chart will show altitude changes over time

两行轨道根数

1 63788U 25091P 25353.46876915 .00026247 00000-0 95960-3 0 9996
2 63788 43.0009 145.5521 0001482 269.0715 90.9967 15.27591235 36625
Epoch: Dec 19, 2025 • Age: 20 hours

当前状态

高度 492.9 km
速度 7.62 km/s
星下点 -37.06°S, 178.39°E
发射日期 May 2, 2025
运行时间 0.6 years
类型 internet

技术详情

分类 Payload
质量 575.00 kg
干质量 530.00 kg
总质量 575.00 kg
长度 0.30 m
直径 4.10 m
跨度 29.00 m
形状 Box + pan
制造商 SPXS
平台类型 Starlink V2MO
阶段状态 In Orbit
所有者/国家 SPXS/US

大型星座

Loading constellations...